Temperature
16 16 16 16 15 15 15 15 15 15 15 14 14 14 14 14 14 14 13 13 13 13 13 13 13 13 13 13 13 13 13 13 12 12 12 11 11 11 11 11 11 11 11
16 16 16 15 15 15 15 15 14 14 14 14 14 14 14 14 13 13 13 13 13 13 13 13 13 13 13 13 13 13 12 12 12 12 11 11 11 11 11 11 11 11 11
16 16 15 15 15 15 15 14 14 14 14 14 14 13 13 13 13 13 13 13 13 13 13 13 13 13 13 13 13 12 12 12 12 12 11 11 11 11 11 11 10 10 11
16 15 15 15 15 15 14 14 14 14 14 14 13 13 13 13 13 13 13 13 13 13 13 13 13 13 12 12 12 12 12 12 12 11 11 11 11 10 10 10 10 10 10
16 15 15 15 15 14 14 14 14 13 13 13 13 13 13 13 13 13 13 13 13 12 12 12 12 12 12 12 12 12 12 11 11 11 11 11 11 10 10 10 10 10 10
15 15 15 15 14 14 14 14 13 13 13 13 13 13 13 12 12 12 12 12 12 12 12 12 12 12 12 12 12 12 11 11 11 11 11 11 11 11 10 10 10 10 9
15 15 15 14 14 14 14 13 13 13 13 13 13 12 12 12 12 12 12 12 12 12 12 12 12 12 12 12 12 12 11 11 11 11 11 11 11 11 10 10 10 10 10
15 15 14 14 14 14 13 13 13 13 12 12 12 12 12 12 12 12 12 12 12 11 11 11 12 12 12 12 12 11 11 11 11 11 11 11 11 10 10 10 10 9 9
15 14 14 14 13 13 13 13 13 12 12 12 12 12 12 12 12 11 11 11 11 11 11 11 11 11 11 11 11 11 11 11 11 11 11 11 10 10 10 10 9 9 9
14 14 14 14 13 13 13 13 12 12 12 12 11 11 11 11 11 11 11 11 11 11 11 11 11 11 11 11 11 11 11 11 11 11 10 10 10 10 10 10 10 9 9
14 14 14 13 13 13 13 12 12 12 11 11 11 11 11 11 11 11 11 11 11 11 10 10 10 11 11 11 10 10 10 10 10 10 10 10 10 10 10 10 9 9 9
14 13 13 13 13 12 12 12 12 11 11 11 11 11 11 11 11 11 11 11 10 10 10 10 10 10 10 10 10 10 10 10 10 10 10 10 10 10 9 9 9 9 9
13 13 13 12 12 12 12 12 11 11 11 11 11 11 11 10 11 11 10 10 10 10 10 10 10 10 10 10 10 9 9 9 9 9 9 9 9 9 9 9 9 9 8
13 12 12 12 12 12 12 11 11 11 11 11 10 10 10 10 10 11 10 10 10 10 10 9 9 9 9 9 9 9 9 9 9 9 9 9 9 9 9 9 8 8 8
12 12 12 12 12 11 11 11 11 11 11 11 11 11 10 11 11 11 10 10 10 10 9 9 9 9 9 9 9 9 9 9 9 9 9 8 8 8 8 8 8 8 8
11 11 11 11 11 11 11 11 11 10 10 10 10 10 10 10 10 10 10 10 10 9 9 8 9 9 9 9 9 9 9 9 8 8 8 8 8 8 8 8 8 8 8
11 11 11 11 11 11 10 10 10 10 10 10 10 10 10 10 10 10 10 9 9 9 8 8 8 8 8 8 8 8 8 9 8 8 8 8 8 8 8 8 7 7 7
10 10 10 10 10 10 10 10 10 10 10 10 9 9 10 9 9 9 9 9 8 8 8 8 8 8 8 8 8 8 8 8 8 8 8 8 8 8 7 7 7 7 7
9 9 9 9 9 9 9 9 9 9 9 9 9 9 9 9 9 9 8 8 8 8 8 8 8 8 8 7 7 8 8 8 8 8 8 8 8 7 7 7 7 7 7
9 9 9 9 9 9 9 9 9 8 8 8 9 9 9 9 8 8 8 8 8 8 8 8 8 7 7 7 7 7 7 7 7 7 7 7 7 7 7 7 7 7 6
8 8 8 8 8 8 8 8 8 8 8 8 8 8 8 8 8 8 8 8 8 7 7 7 7 7 7 7 7 7 7 7 7 7 7 7 7 7 7 7 6 6 6
8 8 8 8 8 8 8 8 7 7 7 8 8 8 8 8 7 7 7 7 7 7 7 7 7 7 7 7 7 7 7 7 7 6 6 6 6 6 6 6 6 6 6
7 7 7 7 7 7 7 7 7 7 7 7 7 7 7 7 7 7 7 7 7 7 7 7 6 6 6 6 6 6 6 6 6 6 6 6 6 6 6 6 6 6 6
7 7 7 7 7 7 7 7 7 6 6 6 6 6 6 6 6 6 6 6 6 6 6 6 6 6 6 6 6 6 6 6 6 6 6 6 5 6 6 5 5 5 5
7 7 6 6 6 6 6 6 6 6 6 6 6 6 6 6 6 6 6 6 6 6 6 6 5 5 5 5 5 6 5 5 5 5 5 5 5 5 5 5 5 5 5
6 6 6 6 6 6 6 6 6 6 6 6 6 6 6 5 5 5 5 5 5 5 5 5 5 5 5 5 5 5 5 5 5 5 5 5 5 5 5 5 5 5 5
Wind_Speed
3 3 2 2 2 3 2 2 2 2 2 2 2 1 1 1 1 1 1 2 2 2 2 2 2 2 2 1 1 1 1 2 2 1 1 2 3 3 3 4 5 5 4
4 3 3 2 2 3 3 2 2 2 1 1 2 2 2 1 1 2 2 2 2 2 2 1 2 2 2 1 1 1 1 1 3 2 1 2 2 4 4 3 3 4 4
4 4 3 3 3 3 2 3 2 2 1 1 2 2 2 2 1 2 2 2 2 2 2 2 2 3 2 1 2 1 1 1 2 2 2 1 2 3 2 2 2 3 3
4 4 4 4 4 3 2 2 2 1 1 1 1 2 2 2 1 2 2 3 2 2 2 2 2 3 3 3 2 2 2 2 1 1 2 2 2 2 2 2 1 1 1
5 5 5 4 3 3 2 2 2 2 2 2 2 1 1 1 1 1 1 2 2 2 2 1 2 3 3 3 2 2 3 2 2 2 2 2 2 2 3 2 2 1 1
5 5 4 3 3 3 3 2 2 2 2 1 1 1 1 1 2 1 1 3 3 2 2 1 3 3 4 3 3 3 4 4 4 3 3 3 4 3 3 2 2 1 1
4 4 3 3 2 3 3 3 3 3 2 2 2 2 2 3 3 3 3 3 3 3 2 2 2 2 4 2 3 3 3 5 5 4 4 4 4 4 4 3 3 2 2
4 3 3 3 3 3 3 3 3 3 2 2 2 2 2 3 4 3 4 3 3 2 2 2 2 2 2 3 3 3 3 4 5 4 4 3 3 4 5 5 4 2 0
4 3 3 3 3 4 3 4 3 3 3 3 3 3 3 3 4 4 3 2 2 3 2 2 2 3 3 3 2 3 3 2 3 3 4 4 4 5 6 4 3 2 1
3 3 3 4 4 5 5 3 2 3 4 4 4 4 4 4 5 5 4 2 2 2 2 2 3 3 4 4 2 3 3 3 3 2 2 3 4 5 6 6 5 4 2
2 2 3 4 4 4 4 3 3 3 4 4 4 4 4 5 5 6 5 3 2 2 2 2 2 4 4 5 4 3 5 3 3 4 3 3 3 3 4 5 5 4 3
1 2 4 4 4 4 4 4 4 4 4 4 4 4 3 4 5 6 8 7 3 2 3 2 2 4 5 5 3 4 4 3 2 2 2 3 3 3 4 5 5 5 5
1 2 3 4 3 4 4 5 4 4 4 4 4 4 3 2 4 7 8 8 6 3 2 3 4 5 4 3 4 6 4 3 2 3 3 4 4 4 3 3 3 3 3
2 3 3 3 3 3 3 4 4 4 4 4 4 4 3 2 3 3 3 4 4 3 2 2 3 4 4 4 4 4 4 4 3 4 4 4 3 3 3 3 3 2 2
2 3 3 3 3 3 3 3 4 4 5 5 4 4 4 4 5 5 4 4 4 3 2 1 1 2 2 3 3 3 4 3 4 4 4 3 3 4 3 3 3 3 3
2 3 2 2 2 2 2 2 2 3 4 5 5 5 5 6 6 7 7 6 6 6 4 3 3 4 4 4 4 4 4 4 5 4 4 4 4 4 4 3 3 3 4
3 3 2 2 2 2 2 3 2 2 2 4 5 6 6 6 7 7 7 6 7 7 4 5 5 5 5 4 4 5 5 5 4 5 5 5 4 4 4 4 4 4 4
3 3 3 2 2 2 2 2 3 3 3 3 4 6 6 6 7 8 7 4 4 5 5 5 5 5 5 5 5 5 4 4 4 5 5 5 5 5 4 5 5 5 5
3 2 2 2 2 2 2 2 3 3 3 3 2 3 4 4 4 6 7 4 5 5 5 5 5 5 5 5 5 5 5 5 5 4 5 5 5 5 5 5 5 7 6
2 4 3 3 3 2 2 2 2 3 3 3 3 3 2 2 2 3 4 4 5 5 5 5 5 4 4 4 4 4 4 4 5 5 5 5 5 5 6 6 6 5 6
2 3 4 3 3 3 2 2 2 3 3 3 2 3 4 4 4 5 5 5 4 5 5 5 5 4 4 4 4 5 5 4 4 5 5 5 5 5 5 5 6 6 5
3 3 3 3 3 2 2 3 3 3 3 3 2 3 5 4 4 4 4 5 5 4 4 4 4 4 4 4 5 5 5 5 5 4 5 5 5 5 5 5 5 5 5
3 3 3 3 3 3 3 3 3 3 3 3 2 2 3 3 3 4 4 4 4 4 3 3 4 4 4 4 5 5 6 6 5 5 5 5 5 5 5 6 6 6 6
3 3 3 3 2 3 3 3 3 3 3 3 3 3 3 3 4 4 4 3 3 3 3 4 5 6 6 5 5 6 6 6 6 5 6 6 6 6 6 6 6 7 7
3 2 2 3 3 3 3 3 3 3 3 3 3 3 3 3 4 4 4 4 4 4 5 5 5 6 7 7 7 7 8 9 8 6 5 6 6 6 6 6 6 6 6
2 2 2 2 2 2 3 3 3 3 3 3 3 2 3 3 4 4 4 4 4 4 4 4 5 6 7 7 8 9 9 8 8 8 6 5 6 6 6 5 6 6 6
Wind_Direction
181 195 190 172 176 174 175 179 216 217 190 188 185 190 162 224 202 169 223 224 224 240 226 190 202 172 139 156 150 159 170 137 165 230 171 148 127 123 126 131 133 142 141
187 196 204 184 181 184 182 185 222 238 220 209 187 200 179 206 211 207 233 240 226 237 230 192 193 159 141 149 137 170 155 158 160 178 194 164 153 151 149 157 147 145 142
189 203 205 193 201 208 200 185 209 219 213 235 209 218 203 206 218 240 236 238 227 221 222 205 196 163 157 181 189 170 160 132 141 167 190 182 169 152 140 147 134 133 150
187 206 208 205 203 199 202 184 202 204 209 241 241 232 226 220 212 241 251 247 241 223 220 207 179 162 173 181 181 167 150 140 152 158 177 181 173 157 138 149 156 197 198
191 210 211 209 199 187 191 193 201 191 215 227 231 234 238 238 236 250 278 288 270 247 235 190 158 149 153 165 177 169 160 170 175 183 192 186 184 163 178 180 173 188 246
199 212 206 203 193 185 192 190 178 189 216 220 229 204 224 259 257 265 278 270 262 248 231 184 166 142 136 152 170 178 175 179 186 190 208 207 210 188 171 164 160 155 240
206 209 198 189 185 192 197 190 192 199 207 213 223 195 198 217 222 240 265 263 256 245 222 197 213 177 150 170 201 203 199 195 194 192 204 214 206 185 166 176 186 197 212
204 199 191 186 189 195 199 196 202 199 203 214 219 200 204 223 214 227 254 248 248 248 231 191 186 173 188 178 195 206 215 217 216 207 203 209 193 173 172 182 185 175 204
203 195 203 201 201 203 208 209 201 193 211 221 222 211 207 208 207 219 238 244 245 246 233 202 195 186 203 183 204 217 213 228 223 199 196 193 193 184 169 150 161 159 227
210 204 208 204 208 211 209 210 209 205 208 217 227 215 202 205 209 213 222 231 239 254 251 217 208 210 211 201 210 216 215 223 215 227 230 220 194 187 181 176 178 179 196
228 222 212 206 211 215 204 200 205 207 209 216 223 214 207 204 206 208 211 213 219 236 247 244 222 202 207 224 230 228 226 218 218 212 212 215 198 183 189 194 186 181 191
216 236 223 214 215 218 197 200 204 206 208 212 223 220 211 199 193 209 214 218 225 224 241 238 228 219 228 233 231 228 229 221 206 211 214 209 205 203 200 200 205 205 208
227 248 236 219 211 203 200 203 203 206 213 213 218 224 217 200 199 209 213 218 229 231 247 232 231 231 229 231 229 229 229 223 211 212 227 225 212 204 183 184 201 203 216
252 250 246 222 207 208 208 199 200 204 213 217 221 223 214 206 201 201 207 216 222 229 254 249 229 216 212 219 227 233 222 220 212 218 228 227 212 187 183 184 197 202 221
281 271 255 236 212 215 220 214 211 213 212 215 214 210 210 219 220 207 200 211 211 214 200 201 225 224 212 217 222 220 215 218 223 224 222 224 217 200 198 195 193 203 219
285 287 274 255 229 208 205 228 234 221 218 221 223 221 225 224 216 207 210 222 217 203 192 208 217 216 219 219 220 222 220 221 217 213 217 220 216 209 208 206 201 205 223
287 289 285 271 260 233 211 207 236 264 251 233 226 223 227 226 211 207 214 221 218 197 205 219 220 222 226 228 227 223 222 222 217 213 217 220 221 213 209 212 212 218 229
297 294 294 278 264 248 233 224 224 234 243 255 248 234 231 228 216 209 207 195 211 205 217 222 227 228 228 228 230 232 227 221 219 220 216 217 216 212 212 214 216 222 228
295 293 285 281 272 255 245 237 232 238 241 241 234 231 229 228 221 208 192 202 213 221 225 230 230 229 229 228 228 230 230 225 221 219 220 220 216 211 216 218 218 226 224
291 292 294 282 274 261 252 251 244 242 245 239 231 209 187 202 219 210 211 215 218 224 229 233 236 234 230 230 230 227 233 231 225 225 228 227 223 217 217 218 218 221 225
282 277 278 275 265 256 255 259 258 253 251 248 234 209 193 212 223 220 218 223 227 229 230 233 234 233 234 236 236 232 233 236 229 227 230 234 231 224 219 217 221 222 225
282 277 273 280 278 261 256 254 256 258 259 257 253 227 208 215 228 233 227 230 236 240 236 234 237 235 231 231 233 234 234 239 239 236 234 236 234 225 220 219 221 225 226
287 288 286 288 288 271 261 257 255 258 256 249 251 250 221 234 237 236 239 241 243 245 246 240 242 245 245 240 235 232 234 236 235 231 230 234 238 233 226 226 224 224 227
286 287 290 289 286 281 277 272 267 261 258 252 244 243 238 243 254 258 257 251 249 255 253 248 247 247 249 250 245 241 242 241 237 232 229 233 234 233 229 231 232 228 225
284 279 279 282 278 274 274 276 269 266 264 259 254 255 257 255 256 262 261 257 253 257 262 260 257 253 250 250 252 252 249 242 237 237 234 231 231 231 230 230 233 235 235
292 288 282 279 277 281 284 282 282 278 271 271 268 265 265 264 262 261 260 258 259 261 266 268 267 265 263 259 257 259 255 244 235 232 232 231 231 231 230 230 232 232 230
Height
1516 1518 1519 1519 1520 1520 1520 1521 1521 1521 1521 1522 1522 1522 1522 1522 1523 1523 1523 1523 1524 1524 1524 1525 1525 1526 1526 1527 1527 1528 1528 1529 1528 1529 1529 1530 1530 1530 1529 1529 1529 1528 1528
1514 1515 1516 1517 1517 1518 1518 1518 1518 1519 1519 1519 1520 1520 1520 1520 1520 1520 1521 1521 1522 1522 1522 1523 1523 1523 1524 1525 1525 1525 1526 1526 1527 1526 1527 1528 1528 1528 1528 1528 1528 1527 1527
1512 1513 1514 1514 1515 1515 1515 1516 1516 1516 1517 1517 1517 1517 1518 1518 1518 1518 1519 1519 1519 1520 1520 1520 1521 1521 1522 1522 1523 1523 1524 1524 1525 1525 1525 1526 1526 1526 1526 1526 1526 1526 1526
1509 1510 1510 1511 1512 1512 1512 1513 1513 1513 1513 1514 1514 1514 1514 1515 1515 1516 1516 1516 1517 1517 1518 1518 1518 1519 1519 1520 1520 1521 1521 1522 1522 1522 1523 1523 1524 1524 1524 1524 1524 1524 1524
1505 1506 1507 1507 1508 1509 1509 1509 1510 1510 1510 1511 1511 1511 1511 1511 1511 1512 1513 1513 1514 1514 1515 1515 1515 1516 1516 1517 1518 1518 1518 1519 1519 1520 1520 1521 1522 1522 1522 1522 1522 1522 1523
1502 1502 1503 1504 1505 1505 1506 1506 1506 1507 1507 1507 1507 1507 1507 1507 1508 1509 1509 1510 1510 1511 1511 1512 1512 1513 1514 1514 1515 1515 1516 1516 1517 1517 1518 1518 1519 1519 1519 1520 1520 1520 1520
1498 1499 1500 1500 1501 1501 1502 1502 1502 1503 1503 1503 1503 1503 1503 1504 1504 1505 1506 1506 1507 1507 1508 1509 1509 1510 1510 1510 1511 1512 1513 1514 1515 1515 1515 1515 1516 1516 1516 1517 1517 1517 1517
1495 1496 1496 1497 1497 1498 1498 1498 1499 1499 1499 1499 1499 1500 1500 1500 1501 1501 1502 1503 1503 1504 1505 1505 1506 1506 1507 1507 1507 1508 1509 1510 1511 1512 1512 1512 1513 1513 1514 1514 1514 1515 1516
1491 1492 1492 1493 1493 1493 1494 1494 1495 1495 1495 1495 1496 1496 1496 1496 1497 1498 1498 1499 1500 1500 1501 1502 1502 1503 1503 1504 1504 1504 1505 1506 1507 1508 1509 1509 1510 1510 1511 1511 1512 1512 1512
1487 1487 1488 1488 1488 1489 1489 1490 1490 1491 1491 1492 1492 1492 1493 1493 1493 1494 1495 1495 1496 1497 1497 1498 1499 1500 1500 1500 1501 1501 1501 1502 1503 1504 1505 1505 1506 1507 1507 1508 1508 1508 1508
1483 1483 1483 1483 1484 1485 1485 1486 1486 1487 1487 1488 1488 1488 1489 1489 1490 1490 1491 1492 1492 1493 1493 1494 1495 1496 1496 1496 1497 1497 1498 1499 1499 1500 1500 1501 1502 1503 1503 1504 1504 1505 1505
1478 1478 1478 1479 1480 1480 1481 1481 1482 1483 1483 1484 1484 1484 1485 1485 1486 1487 1487 1488 1489 1489 1489 1490 1491 1491 1492 1492 1493 1493 1494 1495 1495 1496 1496 1496 1497 1498 1499 1500 1501 1501 1502
1474 1474 1474 1475 1475 1476 1477 1477 1478 1479 1479 1479 1480 1481 1481 1481 1482 1483 1484 1484 1485 1485 1486 1486 1487 1487 1488 1488 1488 1489 1490 1490 1491 1491 1492 1492 1493 1494 1495 1496 1496 1497 1498
1470 1470 1470 1471 1471 1471 1472 1473 1473 1474 1474 1475 1475 1476 1477 1477 1478 1478 1479 1480 1481 1481 1482 1482 1483 1483 1483 1484 1484 1484 1485 1486 1486 1487 1487 1488 1489 1490 1490 1491 1491 1492 1492
1466 1466 1466 1467 1467 1467 1468 1468 1469 1469 1470 1470 1470 1471 1472 1472 1473 1474 1475 1475 1476 1477 1477 1477 1478 1478 1478 1479 1479 1480 1480 1481 1482 1482 1483 1483 1484 1485 1485 1486 1487 1487 1487
1462 1462 1462 1463 1463 1463 1463 1463 1464 1465 1465 1466 1467 1468 1468 1469 1469 1470 1470 1471 1472 1472 1473 1472 1473 1473 1473 1474 1474 1475 1475 1476 1477 1477 1478 1479 1479 1480 1481 1481 1482 1482 1482
1460 1459 1459 1459 1459 1459 1459 1458 1459 1459 1460 1461 1462 1463 1463 1464 1464 1465 1465 1466 1467 1467 1467 1467 1467 1468 1468 1469 1469 1470 1470 1471 1472 1472 1473 1474 1474 1475 1476 1476 1477 1477 1477
1456 1456 1455 1455 1454 1455 1454 1454 1454 1454 1455 1455 1457 1458 1458 1459 1459 1460 1460 1461 1461 1461 1461 1462 1462 1463 1463 1464 1464 1465 1465 1466 1466 1467 1468 1468 1469 1469 1470 1470 1471 1472 1472
1452 1451 1451 1451 1450 1450 1450 1450 1450 1450 1450 1451 1451 1452 1453 1454 1454 1455 1455 1455 1455 1455 1456 1456 1457 1458 1458 1458 1459 1459 1460 1460 1461 1461 1462 1463 1463 1464 1464 1465 1466 1467 1467
1448 1448 1447 1447 1447 1446 1447 1447 1446 1446 1446 1446 1446 1447 1447 1448 1448 1448 1449 1449 1449 1450 1450 1451 1451 1452 1452 1453 1453 1454 1454 1455 1455 1456 1456 1457 1458 1458 1459 1459 1460 1461 1461
1444 1443 1443 1443 1443 1443 1443 1442 1442 1442 1442 1441 1442 1442 1443 1443 1443 1443 1443 1443 1444 1444 1445 1445 1446 1446 1447 1447 1447 1448 1448 1448 1449 1450 1450 1451 1452 1452 1453 1454 1454 1455 1455
1441 1439 1439 1438 1438 1439 1438 1438 1438 1438 1437 1437 1437 1437 1438 1438 1437 1437 1437 1438 1438 1438 1439 1439 1440 1440 1440 1441 1441 1442 1442 1442 1443 1444 1444 1445 1445 1446 1447 1447 1448 1449 1449
1437 1436 1436 1435 1434 1434 1434 1434 1434 1433 1433 1433 1433 1433 1432 1432 1432 1432 1432 1432 1432 1433 1433 1433 1433 1434 1434 1435 1435 1435 1435 1436 1437 1438 1438 1439 1439 1439 1440 1441 1442 1442 1443
1433 1433 1432 1431 1431 1430 1430 1430 1430 1429 1429 1428 1428 1428 1427 1427 1427 1427 1427 1427 1426 1426 1427 1427 1427 1427 1427 1427 1428 1428 1429 1429 1430 1431 1432 1432 1433 1433 1433 1434 1435 1436 1437
1429 1429 1428 1428 1427 1427 1426 1426 1425 1425 1424 1424 1423 1423 1422 1422 1422 1421 1421 1421 1420 1420 1420 1420 1420 1420 1420 1420 1420 1421 1421 1422 1423 1424 1425 1425 1426 1426 1427 1427 1428 1429 1430
1426 1425 1425 1424 1424 1423 1422 1422 1421 1420 1420 1419 1418 1418 1417 1417 1416 1416 1416 1415 1414 1414 1414 1414 1413 1413 1413 1413 1413 1413 1413 1414 1415 1416 1417 1418 1419 1419 1420 1421 1421 1422 1423